Weather History for Pelotas, Brazil

Change the Weather History Date:

Thursday, December 26, 2013

  Actual Average Record
Temperature  
Mean Temperature 86 °F -  
Max Temperature 100 °F 82 °F 100 °F (2013)
Min Temperature 73 °F 66 °F 59 °F (2002)
Cooling Degree Days 22    
Growing Degree Days 36 (Base 50)    
Moisture  
Dew Point 69 °F    
Average Humidity 61    
Maximum Humidity 94    
Minimum Humidity 29    
Precipitation  
Precipitation 0.00 in - - ()
Sea Level Pressure  
Sea Level Pressure 29.77 in    
Wind  
Wind Speed 8 mph ()    
Max Wind Speed 16 mph    
Max Gust Speed -    
Visibility 6.2 miles    
Events      
Averages and records for this station are not official NWS values.
T = Trace of Precipitation, MM = Missing Value Source: Averaged Metar Reports

Daily Weather History Graph

Daily Weather History Graph

Search for Another Location

Airport:

Trip Planner

Search our weather history database for the weather conditions in past years. The results will help you decide how hot, cold, wet, or windy it might be!

Date:

Astronomy

Dec. 26, 2013 Rise Set
Actual Time 6:23 AM BRST 8:36 PM BRST
Civil Twilight 5:55 AM BRST 9:04 PM BRST
Nautical Twilight 5:21 AM BRST 9:38 PM BRST
Astronomical Twilight 4:43 AM BRST 10:16 PM BRST
Moon 1:33 AM BRST (12/26) 2:33 PM BRST (12/26)
Length of Visible Light 15h 09m
Length of Day
14h 12m
Last Quarter, 40% of the Moon is Illuminated
Dec 26
Last Quarter
Jan 1
New
Jan 8
First Quarter
Jan 16
Full
Jan 24
Last Quarter

Hourly Weather History & Observations

Time (BRST) Temp. Heat Index Dew Point Humidity Pressure Visibility Wind Dir Wind Speed Gust Speed Precip Events Conditions
12:00 AM 77.0 °F - 71.6 °F 83% 29.80 in - NE 10.4 mph - N/A   Clear
1:00 AM 75.2 °F - 71.6 °F 89% 29.80 in - NE 10.4 mph - N/A   Clear
2:00 AM 75.2 °F - 71.6 °F 89% 29.80 in 6.2 mi NE 11.5 mph - N/A   Mostly Cloudy
3:00 AM 75.2 °F - 71.6 °F 89% 29.77 in 6.2 mi ENE 9.2 mph - N/A   Mostly Cloudy
4:00 AM 75.2 °F - 71.6 °F 89% 29.77 in 6.2 mi NE 6.9 mph - N/A   Mostly Cloudy
5:00 AM 73.4 °F - 71.6 °F 94% 29.77 in 6.2 mi NE 5.8 mph - N/A   Partly Cloudy
5:50 AM 73.4 °F - 69.8 °F 88% 29.77 in - NE 5.8 mph - N/A   Clear
12:30 PM 96.8 °F 103.1 °F 69.8 °F 41% 29.80 in 6.2 mi East 3.5 mph - N/A   Partly Cloudy
1:00 PM 98.6 °F 109.2 °F 73.4 °F 44% 29.80 in 6.2 mi SSE 5.8 mph - N/A   Partly Cloudy
2:00 PM 100.4 °F 109.3 °F 71.6 °F 39% 29.77 in 6.2 mi SSE 9.2 mph - N/A   Partly Cloudy
3:00 PM 100.4 °F 107.8 °F 69.8 °F 37% 29.77 in 6.2 mi SE 10.4 mph - N/A   Partly Cloudy
4:00 PM 98.6 °F 101.0 °F 64.4 °F 32% 29.74 in 6.2 mi SE 10.4 mph - N/A   Partly Cloudy
5:00 PM 100.4 °F 102.4 °F 62.6 °F 29% 29.74 in - ESE 10.4 mph - N/A   Clear
6:00 PM 96.8 °F 105.1 °F 71.6 °F 44% 29.74 in - East 11.5 mph - N/A   Clear
7:00 PM 93.2 °F 97.7 °F 68.0 °F 44% 29.74 in - ENE 16.1 mph - N/A   Clear
8:00 PM 89.6 °F 92.2 °F 66.2 °F 46% 29.74 in - ENE 10.4 mph - N/A   Clear
9:00 PM 84.2 °F 86.6 °F 66.2 °F 55% 29.77 in - ENE 5.8 mph - N/A   Clear
10:00 PM 80.6 °F 82.7 °F 66.2 °F 61% 29.77 in - NE 4.6 mph - N/A   Clear
11:00 PM 78.8 °F - 69.8 °F 74% 29.80 in - ENE 6.9 mph - N/A   Clear